Miscellaneous Local Product
Issued by NWS North Platte, NE

Home | Current Version | Previous Version | Text Only | Print | Product List | Glossary On
Versions: 1 2 3 4 5 6 7 8 9 10 11 12 13 14 15 16 17 18 19 20 21 22 23 24 25 26 27 28 29 30 31 32 33 34 35 36 37 38 39 40 41 42 43 44 45 46 47 48 49 50
000
AXUS43 KLBF 200210
MISLBF


WESTERN AND NORTH CENTRAL NEBRASKA HOURLY WEATHER ROUNDUP
NATIONAL WEATHER SERVICE NORTH PLATTE NE
900 PM CDT WED JUL 19 2017

NOTE: "FAIR" INDICATES FEW OR NO CLOUDS BELOW 12,000 FEET WITH NO
SIGNIFICANT WEATHER AND/OR OBSTRUCTIONS TO VISIBILITY.

NOTE: STATIONS NOT REPORTING VARIABLES SUCH AS SKY/WEATHER OR
PRESSURE ARE PROVIDED BY RAWS AND APRS NETWORKS AND ARE NOT UNDER
NATIONAL WEATHER SERVICE QUALITY CONTROL.

...OBSERVATIONS IN AND NEAR THE EASTERN PANHANDLE OF NEBRASKA...

CITY           SKY/WX    TMP DP  RH WIND       PRES   REMARKS
PINE RIDGE     CLEAR     85  57  38 NE10      29.97R
GORDON         FAIR      85  57  38 N12       29.97R
CHADRON        CLEAR     86  48  26 NE13      29.97R
ALLIANCE       PTCLDY    88  64  44 NE20G28   29.97R
SIDNEY         CLOUDY    81  57  43 N20G31    30.04R
CRESCENT LAKE    N/A     86  59  39 SW9G21      N/A
$$

...OBSERVATIONS IN NORTHERN NEBRASKA AND FAR SOUTHERN SOUTH DAKOTA...

CITY           SKY/WX    TMP DP  RH WIND       PRES   REMARKS
WINNER         FAIR      84  65  52 SE15      29.90R
VALENTINE      CLOUDY    84  61  45 E10       29.92R
THEDFORD       MOCLDY    88  64  43 E12G22    29.91R
AINSWORTH      CLOUDY    76  71  83 SE13G20   29.90S
O`NEILL        RAIN      70  70 100 SW7G18    29.95R
ORD            CLOUDY    83  65  54 NE20G26   29.89R
BROKEN BOW     CLEAR     92  64  39 S16G24    29.88R HX  93
VALENTINE NWR    N/A     82  67  60 E13G21      N/A
HALSEY           N/A    100  53  20 S5G14       N/A  HX  97
BUTTE            N/A     79  66  64 SE21G35     N/A
CHAMBERS         N/A     73  69  86 NE3         N/A
EWING            N/A     76  68  76 NE3         N/A
$$

...OBSERVATIONS IN SOUTHWEST NEBRASKA AND FAR NORTHEAST COLORADO...

CITY           SKY/WX    TMP DP  RH WIND       PRES   REMARKS
HOLYOKE        FAIR      84  63  48 S9        29.96R
IMPERIAL       CLEAR     91  54  28 S15       29.93R
OGALLALA       CLOUDY    90  59  35 S6        29.91S
NORTH PLATTE   CLEAR     93  60  33 S13       29.88R HX  93
MCCOOK         CLEAR     92  57  30 S12       29.91R HX  90
LEXINGTON      CLEAR     85  70  60 SE9       29.92R
STAPLETON        N/A     90  62  39 CALM        N/A  HX  90
GOTHENBURG       N/A     95  58  28 S8          N/A  HX  94
CALLAWAY         N/A     89  69  52 S9          N/A  HX  93
$$

...OBSERVATIONS IN CENTRAL LINCOLN COUNTY AREA...

CITY           SKY/WX    TMP DP  RH WIND       PRES   REMARKS
N.P. AIRPORT   CLEAR     93  60  33 S13       29.88R HX  93
N.P. DOWNTOWN    N/A     94  61  33 SW3         N/A  HX  94
N.P. SOUTHEAST   N/A     95  60  31 S9G17       N/A  HX  95
N.P. HILLCREST   N/A     94  60  31 S15G26      N/A  HX  93
$$

...SOME OBSERVATIONS FROM AROUND THE REGION...

CITY           SKY/WX    TMP DP  RH WIND       PRES   REMARKS
DENVER         CLOUDY    81  49  32 S25       30.12S
LIMON          CLOUDY    82  53  36 S10       30.10S
ASPEN          CLOUDY    61  54  77 SE15G23   30.39R
LARAMIE        CLOUDY    65  51  60 N9        30.33S
CASPER         CLOUDY    85  43  22 SE7       30.13R
CHEYENNE       CLOUDY    73  52  47 N13       30.21R
SCOTTSBLUFF    PTCLDY    91  60  35 E20       29.97R HX  90
GRAND ISLAND   CLOUDY    85  75  72 S10       29.90S HX  93
OMAHA          MOCLDY    90  78  68 S15       29.90S HX 104
SIOUX FALLS    CLOUDY    80  75  84 SE6       29.86S
PIERRE         CLEAR     84  70  62 NE13      29.89R
RAPID CITY     PTCLDY    83  56  39 N10       30.01R
BISMARCK       CLEAR     83  59  44 S5        29.94R
KANSAS CITY    MOCLDY    83  73  72 S9        30.00S
HILL CITY      CLEAR     93  59  31 S10       29.92S HX  92
WICHITA        PTCLDY    88  68  51 S13       29.98S HX  91
DODGE CITY     CLEAR     88  59  37 SE12      29.99F
OKLAHOMA CITY  PTCLDY    87  67  51 S9        30.03S HX  90
DALLAS         PTCLDY    91  70  49 SE10      30.01S HX  96
AMARILLO       CLEAR     86  56  35 S14       30.13R
$$




USA.gov is the U.S. government's official web portal to all federal, state and local government web resources and services.